RH
79 98 99 95 97 97 97 95 100 100 99 98 99 86 86 84 70 73 73 69 64 62 64 70 76 78 84 91 94 84 78 83 94 93 92 92 81 79
58 87 99 98 98 98 98 96 97 100 100 100 98 98 83 81 82 82 81 80 72 68 68 68 74 75 72 70 72 82 82 86 93 97 99 97 92 88
56 79 83 93 94 94 87 86 98 98 100 100 96 98 96 83 83 86 86 80 74 73 73 75 72 73 76 74 74 80 88 92 93 94 93 98 99 96
48 68 76 75 77 78 74 74 80 86 100 100 97 96 96 90 85 80 73 76 78 77 74 74 78 80 85 83 80 86 86 89 93 94 96 97 100 96
60 60 71 76 71 65 58 60 61 67 79 92 99 99 96 87 88 82 74 73 79 80 81 81 83 80 86 88 88 81 76 92 96 93 93 97 99 87
68 62 76 81 78 69 64 73 83 99 94 96 96 95 98 92 89 84 83 78 80 76 76 73 68 70 86 89 90 87 79 86 86 92 99 96 95 87
71 70 69 76 83 76 89 91 100 100 100 100 97 100 97 99 95 94 96 88 80 73 74 67 74 92 97 94 97 91 88 85 92 98 100 98 98 98
65 81 76 80 78 73 96 99 100 100 100 100 97 98 100 99 100 100 99 92 92 74 81 81 89 85 99 99 83 98 90 86 93 98 97 92 86 85
82 82 81 82 71 83 97 94 99 100 100 100 100 99 99 98 95 100 98 98 93 96 98 100 99 95 96 100 100 100 98 97 98 100 97 94 92 84
80 69 79 72 64 88 100 96 95 100 100 100 100 100 100 100 100 97 100 99 99 100 100 98 96 97 100 99 100 98 95 98 98 95 92 88 85 80
72 72 80 70 62 73 93 96 92 98 100 100 100 100 100 100 100 100 100 100 98 99 93 99 99 100 100 100 100 92 89 98 96 83 93 97 87 82
79 75 76 69 67 70 75 88 94 93 99 100 100 99 98 99 97 96 99 100 100 100 96 100 100 100 100 100 100 100 100 99 100 95 98 100 100 100
79 74 76 71 66 63 62 68 99 98 97 93 98 99 99 100 100 99 97 99 100 100 100 100 100 100 100 100 100 100 99 100 100 100 100 100 100 100
81 74 77 70 62 58 60 55 99 100 100 100 99 99 100 100 100 100 100 100 100 100 100 100 100 100 100 99 99 100 100 100 100 100 100 100 100 100
90 81 78 67 60 55 55 55 97 100 100 96 99 100 99 100 100 100 100 100 100 100 100 100 100 100 100 100 98 100 100 100 100 100 100 100 100 98
99 87 77 66 59 53 48 52 75 84 100 98 98 99 96 90 92 92 95 97 100 100 100 100 100 100 100 100 100 99 100 99 100 100 100 97 90 84
100 91 81 69 57 50 48 45 42 46 51 45 56 50 48 40 34 45 48 46 48 74 88 98 100 100 100 100 100 100 100 100 96 75 67 68 55 42
100 99 86 71 56 49 46 40 34 30 30 29 30 26 20 17 16 18 21 21 27 29 33 36 44 57 66 74 77 92 95 88 66 43 31 28 26 25
100 100 91 73 57 47 41 36 29 26 26 26 25 22 19 16 16 15 15 20 19 17 17 19 22 26 26 28 49 40 38 36 33 30 24 20 13 12
100 100 98 75 58 45 39 32 27 25 24 23 24 23 22 18 16 17 16 16 17 16 15 14 15 15 17 20 24 32 31 22 15 12 12 13 13 13
98 100 99 95 89 46 39 35 33 27 24 22 22 23 21 19 15 15 16 14 13 12 13 13 12 12 14 16 18 22 17 15 16 17 17 17 18 19
100 100 100 98 96 46 42 42 36 26 22 21 22 22 18 16 17 16 18 20 18 17 16 16 17 17 19 19 20 22 23 26 28 29 30 31 32 29
100 100 99 98 97 76 47 41 32 25 25 25 23 18 19 20 19 19 20 20 22 23 25 26 29 32 35 36 38 41 42 43 43 44 45 44 42 41
Wind_Speed
21 20 20 23 24 25 26 29 31 32 31 28 29 32 30 32 32 29 31 32 33 35 39 36 36 35 34 34 33 36 35 35 36 39 39 40 38 39
24 20 20 21 22 24 26 28 30 35 39 31 32 34 36 37 36 33 33 33 33 34 36 39 36 36 38 40 38 37 37 36 35 35 36 36 38 42
23 22 21 22 24 26 27 30 34 34 40 38 37 37 36 34 30 30 32 34 35 34 34 36 40 38 37 38 39 38 39 38 37 35 36 35 32 32
26 25 24 23 24 25 27 30 35 35 35 41 37 39 39 32 31 29 32 32 33 33 33 34 36 38 34 33 34 34 36 37 39 38 37 36 34 33
28 26 25 25 27 28 29 31 31 34 38 42 37 34 34 31 29 29 29 30 30 28 23 26 31 36 36 31 30 32 31 31 35 36 37 34 29 30
29 28 26 26 28 29 30 31 34 33 33 34 38 38 34 34 32 30 30 27 27 26 24 27 28 32 34 35 35 37 35 33 32 36 36 35 34 34
29 28 27 26 27 29 30 33 32 32 31 32 31 36 32 33 30 29 25 26 25 23 26 25 23 24 27 32 33 36 33 31 32 32 33 35 36 37
30 29 28 26 26 26 27 28 28 30 29 29 33 26 32 33 28 26 23 23 23 21 17 20 19 16 18 26 35 23 25 26 25 27 30 35 37 39
31 29 27 26 25 23 24 24 24 25 26 26 29 32 33 35 27 26 24 23 22 22 16 17 14 15 16 19 23 23 20 23 25 26 28 31 33 35
30 29 26 25 23 21 23 24 21 20 22 24 24 25 23 26 30 27 24 23 25 24 17 18 18 18 23 23 19 22 22 22 24 24 25 28 29 33
29 26 26 25 23 21 23 23 21 18 16 19 22 24 25 25 24 24 27 27 27 25 21 18 19 17 15 14 12 18 21 20 20 17 20 18 18 19
29 26 25 26 24 22 21 21 21 18 13 13 16 18 21 24 27 29 30 31 29 21 25 21 21 19 14 14 14 13 14 15 12 13 11 8 6 4
27 26 25 24 24 23 21 20 17 15 8 6 7 7 8 9 11 15 17 20 23 24 19 19 22 20 20 10 13 11 12 11 9 11 12 13 11 11
28 25 23 23 23 22 21 19 14 13 9 8 7 5 5 4 5 4 1 3 9 16 18 18 19 18 21 14 12 15 14 13 11 11 11 11 9 8
26 23 23 23 23 22 21 18 16 16 13 14 13 11 10 9 5 2 3 4 2 4 7 11 11 11 14 14 16 19 17 15 14 13 12 12 10 7
25 23 23 24 23 22 20 18 18 18 18 19 19 18 15 11 9 6 4 2 2 3 4 5 7 10 12 9 10 17 16 10 14 13 13 12 12 12
25 25 25 24 22 21 20 18 17 17 17 16 16 12 9 8 7 6 6 5 5 6 6 8 9 11 11 9 12 14 14 13 11 10 10 12 11 11
27 28 27 24 22 19 18 16 15 14 13 11 11 9 8 7 6 6 6 6 6 7 7 8 9 10 10 8 9 11 12 11 10 8 9 8 9 10
25 29 27 24 21 19 18 16 13 12 12 11 11 10 8 7 6 6 6 5 6 6 7 7 8 9 9 7 7 9 7 6 6 7 9 9 8 11
30 27 28 23 19 19 18 16 14 14 13 12 11 9 8 7 5 5 6 6 5 5 5 5 5 7 8 7 7 7 7 5 5 5 5 5 5 5
32 28 27 23 19 18 17 16 15 14 12 11 10 9 8 7 6 6 6 7 6 7 6 6 4 4 4 4 4 5 4 3 3 4 5 7 6 6
32 30 28 26 20 17 17 16 16 14 12 11 10 9 8 8 7 6 6 5 6 6 6 6 6 6 5 4 3 2 2 4 6 6 7 8 9 6
27 27 26 24 23 18 16 16 15 13 12 11 10 9 8 7 8 7 6 6 4 3 4 4 4 3 2 2 2 2 4 6 8 10 11 13 14 15
Wind_Direction
286 288 272 273 271 276 274 275 278 277 277 279 277 281 280 277 278 276 275 273 272 269 266 264 264 261 259 261 261 261 263 266 262 255 253 253 255 254
288 280 275 271 276 277 279 279 279 279 278 278 278 276 276 276 279 281 279 276 274 270 266 261 259 260 262 262 261 260 257 264 261 261 261 251 248 254
283 281 278 273 269 270 274 276 283 280 280 281 282 284 277 277 279 279 277 276 275 273 267 262 256 257 260 260 261 257 254 256 257 259 255 256 254 253
282 280 280 281 276 276 277 277 272 272 281 275 279 284 271 273 276 275 276 277 278 275 271 266 259 256 259 260 257 257 255 254 255 255 255 249 245 254
281 279 280 282 284 287 288 286 286 279 270 268 281 272 278 278 276 279 277 277 279 291 272 272 270 259 256 260 253 253 259 256 253 253 253 250 244 247
278 279 278 281 286 290 292 292 290 283 283 280 267 271 277 276 275 273 276 274 282 280 281 272 276 264 257 252 257 256 256 254 253 252 249 247 247 249
275 276 277 278 282 287 292 292 289 284 278 282 263 258 267 266 268 276 277 279 280 281 279 289 284 272 264 254 261 254 253 249 250 249 249 247 250 251
278 275 277 278 281 286 295 292 281 278 273 277 254 281 256 263 272 275 268 273 282 288 295 287 270 278 280 266 260 238 243 249 251 254 254 254 256 259
280 273 276 278 280 286 298 309 287 273 268 270 267 272 268 265 272 266 260 264 274 280 284 281 273 268 270 260 258 245 248 255 253 250 256 260 258 257
272 277 274 276 279 285 297 312 313 284 271 272 272 271 269 268 263 262 265 267 271 272 266 271 280 277 264 258 235 249 245 262 265 267 266 265 264 261
271 274 274 276 277 283 291 302 310 306 289 280 274 273 269 260 254 255 259 268 263 261 264 261 270 265 235 235 260 261 258 257 264 269 279 275 266 260
268 271 270 274 275 280 285 292 299 300 296 293 287 278 275 272 262 261 259 259 253 257 260 252 255 253 236 232 238 238 250 255 251 260 243 206 193 232
267 266 265 268 270 276 279 280 288 288 287 312 316 318 304 290 269 257 255 251 246 247 245 251 246 242 231 209 214 220 217 216 211 201 194 189 184 181
263 266 263 264 266 272 276 273 273 272 279 285 286 303 317 350 30 39 20 243 240 244 246 236 234 235 228 206 185 195 196 198 195 194 187 188 188 189
261 264 260 261 262 266 269 269 256 261 266 268 274 281 288 287 295 332 60 72 111 194 210 216 221 225 214 222 206 188 186 189 195 198 200 201 208 216
257 255 257 258 259 262 265 259 257 256 254 257 262 266 271 270 261 247 238 210 203 159 157 179 189 186 208 201 197 190 190 195 208 216 224 228 233 243
251 249 249 251 255 258 258 255 255 254 255 256 255 253 250 249 238 234 221 216 225 199 180 168 169 183 180 174 177 189 201 214 225 237 246 254 258 255
241 242 244 245 247 252 251 250 250 249 246 238 237 230 220 215 212 211 220 214 199 183 173 166 167 174 173 166 186 196 208 218 226 235 242 244 253 255
248 241 240 242 242 244 243 243 240 238 232 227 228 228 220 208 206 196 191 188 182 183 186 190 190 189 192 182 192 204 212 229 238 249 259 261 256 259
246 245 235 237 235 238 235 234 231 229 228 228 228 224 217 201 204 205 195 194 192 184 185 194 209 219 223 225 218 220 222 237 248 260 270 281 280 280
238 239 227 222 223 233 232 230 227 225 223 222 217 211 209 205 201 202 202 189 181 175 175 170 162 167 165 187 190 185 217 227 250 273 291 299 303 301
234 237 222 214 204 224 226 224 222 219 213 206 203 207 209 204 186 183 175 166 160 157 156 151 154 152 156 174 181 198 259 283 288 297 300 299 299 293
239 233 218 209 195 204 218 218 214 209 203 201 203 203 200 195 181 175 172 170 167 158 148 144 135 131 141 177 224 248 260 268 272 279 288 291 290 289